Regional Weather Roundup
Issued by NWS

Home | Current Version | Previous Version | Graphics & Text | Print | Product List | Glossary On
Versions: 1 2 3 4 5 6 7 8 9 10 11 12 13 14 15 16 17 18 19 20 21 22 23 24 25 26 27 28 29 30 31 32 33 34 35 36 37 38 39 40 41 42 43 44 45 46 47 48 49 50
000
ASUS43 KFSD 221810
RWRSD

WEATHER ROUNDUP FOR SOUTH DAKOTA
NATIONAL WEATHER SERVICE SIOUX FALLS SD
1200 PM CST MON JAN 22 2018

NOTE: "FAIR" INDICATES FEW OR NO CLOUDS BELOW 12,000 FEET WITH NO
SIGNIFICANT WEATHER AND/OR OBSTRUCTIONS TO VISIBILITY.


SDZ001>005-009-010-012>017-221900-
NORTHWEST AND NORTH CENTRAL SOUTH DAKOTA

CITY           SKY/WX    TMP DP  RH WIND       PRES   REMARKS
BUFFALO          N/A     31  19  61 NW8       29.92S WCI  23
FAITH            N/A     30  21  69 N15       29.97F WCI  19
MOBRIDGE       CLOUDY    23  20  88 N12       29.97F FOG     WCI  12
$$

SDZ012>016-024>037-041>051-057-063-072>074-221900-
SOUTHWEST AND SOUTH CENTRAL SOUTH DAKOTA

CITY           SKY/WX    TMP DP  RH WIND       PRES   REMARKS
RAPID CTY ARPT SUNNY     38  17  42 N18G25    29.97F
PIERRE         CLOUDY    22  22 100 NW21G30   29.93F FOG     WCI   6
CUSTER         SUNNY     33   7  33 VRB3      29.92R
ELLSWORTH AFB  SUNNY     36  17  46 N20G26    29.96F
PHILIP         SUNNY     31  24  75 NW8       30.00F WCI  23
PINE RIDGE     MOSUNNY   21  13  71 W9        30.01S WCI  11
SPEARFISH        N/A     36  14  41 W9        29.99S
WINNER         MIX PCPN  25  21  85 NW16      29.92R FOG     WCI  12
$$

SDZ004>011-016>023-039-040-221900-
NORTHEAST SOUTH DAKOTA

CITY           SKY/WX    TMP DP  RH WIND       PRES   REMARKS
ABERDEEN       CLOUDY    23  21  92 N21G28    29.96S WCI   8
WATERTOWN      CLOUDY    24  23  96 N23G36    29.81F FOG     WCI   9
BROOKINGS      FLURRIES  25  23  92 N25G31    29.76S WCI   9
SISSETON         N/A     27  24  89 N21       29.91F WCI  13
$$

SDZ017-020-022-023-036>040-048>070-221900-
SOUTHEAST SOUTH DAKOTA

CITY           SKY/WX    TMP DP  RH WIND       PRES   REMARKS
SIOUX FALLS    CLOUDY    27  25  92 N25G36    29.75R WCI  12
HURON          CLOUDY    22  22 100 N23G33    29.88F FOG     WCI   6
CHAMBERLAIN    CLOUDY    26  25  96 NW18G25   29.90S WCI  12
MITCHELL       MIX PCPN  24  22  91 N23G31    29.86S FOG     WCI   9
YANKTON        SNOW      25  23  92 MISG      29.75F VSB 1/2
$$

ABBREVIATIONS USED IN REMARKS
   TC - TEMPERATURE IN CELSIUS
  WCI - WIND CHILL INDEX
   HX - HEAT INDEX
  VSB - VISIBILITY




USA.gov is the U.S. government's official web portal to all federal, state and local government web resources and services.